Simultaneous Nadir Overpasses (SNOs) Predictions

Prediction of SNOs between AQUA and NOAA-19 Satellite Orbit:

Table of predicted SNOs for the next 14.0 days since TLE Epoch: 9/7/2024
Index Date (AQUA) Time (AQUA) Lat,Lon (AQUA) SZA (AQUA ) Date (NOAA-19) Time (NOAA-19) Lat,Lon (NOAA-19) SZA (NOAA-19 ) Distance(km) Time Diff (sec)
1 09/08/2024 21:50:33 -75.63, 31.88 109.69 09/08/2024 21:49:22 -75.61, 31.86 109.71 2.37 71
2 09/08/2024 22:39:56 75.68,-160.60 70.37 09/08/2024 22:40:15 75.66,-160.69 70.36 2.79 19
3 09/11/2024 01:39:37 75.63, 154.65 71.13 09/11/2024 01:39:02 75.65, 154.62 71.15 2.05 35
4 09/11/2024 02:28:59 -75.73, -37.97 108.77 09/11/2024 02:30:04 -75.73, -37.86 108.76 2.88 65
5 09/13/2024 04:39:06 75.11, 111.25 71.43 09/13/2024 04:38:01 75.06, 108.09 71.37 90.56 65
6 09/13/2024 05:28:37 -75.66, -82.63 108.02 09/13/2024 05:28:52 -75.67, -82.72 108.01 2.78 15
7 09/15/2024 08:28:14 -75.66,-127.50 107.20 09/15/2024 08:27:39 -75.63,-127.48 107.23 2.98 35
8 09/15/2024 09:17:37 75.72, 39.97 72.88 09/15/2024 09:18:30 75.73, 40.12 72.88 3.94 53
9 09/17/2024 11:27:42 -75.34,-171.44 106.69 09/17/2024 11:26:33 -75.26,-173.34 106.79 54.36 69
10 09/17/2024 12:17:10 75.66, -4.68 73.63 09/17/2024 12:17:17 75.66, -4.75 73.64 1.87 7
11 09/19/2024 15:16:41 75.62, -49.41 74.42 09/19/2024 15:16:03 75.62, -49.52 74.42 3.02 38



Historial Predications of SNOs between AQUA and NOAA-19
